Zurück zum Katalog

RUNNER-1

TYVAK-1005

AktivWissenschaftSSO
NORAD 56953·PAYLOAD·🇺🇸 United States

Gestartet Jun 12, 2023 von Vandenberg Space Force Base

Loading…

Nächste Überflüge (nächste 24 Stunden)

TLE

AktuellSource: Space-Track

Epoche: Sep 14, 2026, 08:48 UTC

1 56953U 23084X   26257.36727390  .00008333  00000-0  21602-3 0  9995
2 56953  97.6369  43.0241 0007592   4.9165 355.2153 15.39265883181310

Verfolge RUNNER-1 in Echtzeit mit AllMySat

Download on the App Store